Preview of NWS' New Version of Forecast
This preview is not operational and should not be used for support decisions.

Regional Weather Roundup (RWR)

Issued by National Weather Service (NWS)

                            
000
ASUS42 KTBW 211618
RWRFL 
FLORIDA REGIONAL WEATHER ROUNDUP
NATIONAL WEATHER SERVICE TAMPA BAY RUSKIN FL
1200 PM EDT WED AUG 21 2019

NOTE: "FAIR" INDICATES FEW OR NO CLOUDS BELOW 12,000 FEET WITH NO
SIGNIFICANT WEATHER AND/OR OBSTRUCTIONS TO VISIBILITY.

FLZ001>010-012>015-112-114-115-211700-
PANHANDLE FLORIDA
  
CITY           SKY/WX    TMP DP  RH WIND       PRES   REMARKS
PENSACOLA      FAIR      88  77  69 SE8       30.10R HX 100           
PENSACOLA NAS  PTSUNNY   85  79  82 E6        30.10R HX  98           
MILTON NAS     PTSUNNY   86  74  67 CALM      30.11R                  
CRESTVIEW      PTSUNNY   88  75  65 MISG      30.12S HX  97           
DUKE FIELD     FAIR      87  74  63 SE5       30.11R HX  95           
VALPARAISO     FAIR      86  75  70 SE12      30.10S HX  95           
MARY ESTHER    PTSUNNY   87  76  69 SE9       30.09R HX  97           
PANAMA CITY    FAIR      87  75  67 E6        30.10S HX  96           
TYNDALL AFB    FAIR      83  76  79 SE3       30.10R                  
APALACHICOLA   FAIR      87  76  69 SE10      30.10S HX  97           

STATION/POSITION SKY/WX   TEMP    WIND        PRES    WAVE   SWELL
                          AIR SEA DIR/SP/G            HT/PER HT/PER
                          (F)     (DEG/KT/KT) (MB)    (FT/S) (FT/S)
30.1N   87.6W              83 84  100/  6/  6 1019.4R   2/ 5   2/ 5
29.2N   88.2W              84 85  130/  4/  6 1019.0R   1/ 7   2/ 7
28.8N   86.0W                 84  140/  6/ 10 1018.9R   2/ 5   2/ 6
PANAMA CITY BEAC                  140/  8/ 10 1019.8R
TOWER C                    83     110/  6/  7 1019.6R
28.5N   84.5W              84     130/ 12/ 14 1019.8R   2/ 4

$$
FLZ011-016>038-118-127-128-134-139-239-211700-
NORTH FLORIDA
  
CITY           SKY/WX    TMP DP  RH WIND       PRES   REMARKS
MARIANNA       FAIR      83  75  77 E6        30.11R                  
TALLAHASSEE    PTSUNNY   85  76  74 SW3       30.12R                  
PERRY          FAIR      89  77  67 S6        30.12F HX 101           
LIVE OAK       MOSUNNY   86  75  70 CALM      30.12S HX  95           
CROSS CITY     FAIR      88  76  67 E7        30.12S HX  98           
LAKE CITY      FAIR      86  73  66 SE3       30.13F                  
GAINESVILLE    FAIR      85  73  67 S6        30.15S                  
WILLISTON      FAIR      87  73  64 S7        30.12F                  
MAYPORT NAS    PTSUNNY   87  75  67 SE9       30.13S HX  96           
JACKSONVILLE   FAIR      89  71  55 SE8       30.12S HX  95           
JAX NAS        PTSUNNY   86  72  62 S6        30.14S                  
JAX CECIL      MOSUNNY   93  72  49 S6        30.13S HX 100           
FERNANDINA BEA FAIR      86  77  73 MISG      30.13F HX  97           
ST AUGUSTINE   FAIR      87  77  72 SE9       30.14R HX  99           
PALM COAST     MOSUNNY   88  73  62 SE9       30.13S HX  96           

STATION/POSITION SKY/WX   TEMP    WIND        PRES    WAVE   SWELL
                          AIR SEA DIR/SP/G            HT/PER HT/PER
                          (F)     (DEG/KT/KT) (MB)    (FT/S) (FT/S)
SHELL POINT      NOT AVBL
KEATON BEACH               83     170/ 11/ 11 1020.1R
CEDAR KEY                  82     150/  7/  7 1020.1S
FERNANDINA                 92 83              1021.1S
30.7N   81.3W                 85                N/A     2/12
MAYPORT                    85 84  110/  7/ 10 1020.9R
31.4N   80.9W              82 83  190/  4/  6 1020.3R   2/ 6   2/ 6
ST AUGUSTINE               82 82  140/  8/  9 1020.6S

$$
FLZ040-043>046-052-053-057-058-063-144-211700-
INTERIOR CENTRAL FLORIDA
  
CITY           SKY/WX    TMP DP  RH WIND       PRES   REMARKS
OCALA          FAIR      87  75  67 MISG      30.13S HX  96           
LEESBURG       FAIR      88  74  63 SE6       30.13S HX  96           
SANFORD        FAIR      88  73  61 E6        30.12F HX  95           
ORLANDO EXEC   FAIR      89  73  59 SE6       30.12F HX  97           
ORLANDO INTL   FAIR      88  73  61 E6        30.11F HX  95           
KISSIMMEE      FAIR      88  74  63 VRB6      30.13F HX  96           
WINTER HAVEN   FAIR      88  73  61 E7        30.13F HX  95           
LAKELAND       MOSUNNY   88  73  62 E9        30.12F HX  96           
BARTOW         PTSUNNY   86  73  66 SE6       30.11F                  
SEBRING        PTSUNNY   88  73  60 SE7       30.12S HX  95           
OKEECHOBEE     FAIR      88  73  62 SE6       30.11S HX  96           

$$
FLZ041-047-054-059-064-141-147-211700-
EAST CENTRAL FLORIDA
  
CITY           SKY/WX    TMP DP  RH WIND       PRES   REMARKS
ORMOND BEACH   MOSUNNY   88  75  66 SE9G17    30.13S HX  97           
DAYTONA BEACH  FAIR      88  77  69 VRB7      30.12F HX 100           
DELAND         FAIR      88  73  62 SE8       30.12F HX  96           
NEW SMYRNA BEA MOSUNNY   88  77  70 E8        30.14S HX 100           
JFK SPACE CTR  FAIR      88  53  29 NE5       30.12S                  
TITUSVILLE     MOSUNNY   90  77  66 SE5       30.13S HX 102           
CAPE CANAVERAL FAIR      85  79  80 CALM      30.11S HX  98           
PATRICK AFB    FAIR      85  80  85 NE6       30.12S HX  99           
MELBOURNE      FAIR      89  76  65 E9        30.12R HX 100           
VERO BEACH     FAIR      86  76  71 E8        30.12S HX  96           
FT PIERCE      FAIR      87  72  60 NE6       30.10F                  
STUART         MOSUNNY   86  73  66 NE7       30.12S                  

STATION/POSITION SKY/WX   TEMP    WIND        PRES    WAVE   SWELL
                          AIR SEA DIR/SP/G            HT/PER HT/PER
                          (F)     (DEG/KT/KT) (MB)    (FT/S) (FT/S)
28.5N   80.2W              84 84  120/  8/ 10 1020.0S   2/ 6   2/ 6
28.9N   78.5W              84 86   80/  6/ 10 1020.7F   2/ 7   2/ 7
TRIDENT PIER               85 82   80/  5/  7 1021.7R
28.4N   80.5W                 83                N/A     1/12
27.5N   80.2W                 85                N/A     2/12

$$
FLZ050-056-061-142-242-148-248-149-249-151-251-155-255-
160-260-211700-
WEST CENTRAL FLORIDA
  
CITY           SKY/WX    TMP DP  RH WIND       PRES   REMARKS
CRYSTAL RIVER  FAIR      88  72  58 S6        30.12S                  
INVERNESS      FAIR      88  77  70 CALM      30.12F HX 100           
BROOKSVILLE    FAIR      89  73  59 SE6       30.12S HX  97           
CLEARWATER AIR FAIR      86  73  66 SE13      30.12R                  
ST PETE CLEARW FAIR      88  74  63 SE10      30.11S HX  96           
TAMPA INTL     PTSUNNY   88  72  58 SE8       30.12R                  
PLANT CITY     PTSUNNY   88  75  66 E9        30.14S HX  97           
MACDILL AFB    FAIR      87  74  65 SE9       30.11S HX  95           
PETER O KNIGHT FAIR      90  73  58 SE8       30.12R HX  98           
ST PETERSBURG  FAIR      86  74  67 SE10      30.10S                  
SARASOTA       FAIR      87  74  64 SE10      30.09R HX  95           
VENICE         FAIR      90  73  58 SE12      30.11S HX  98           

STATION/POSITION SKY/WX   TEMP    WIND        PRES    WAVE   SWELL
                          AIR SEA DIR/SP/G            HT/PER HT/PER
                          (F)     (DEG/KT/KT) (MB)    (FT/S) (FT/S)
27.3N   84.2W                 85                N/A     2/ 5
CLEARWATER BEACH                  120/  9/ 12 1019.8F
MIDDLE TAMPA BAY           85     130/ 10/ 14 1020.0R
VENICE                     85 85  110/  8/  9 1019.2S

$$
FLZ066-069-070-075>078-162-262-165-265-211700-
SOUTHWEST FLORIDA AND KEYS
  
CITY           SKY/WX    TMP DP  RH WIND       PRES   REMARKS
PUNTA GORDA    FAIR      86  72  62 SE9       30.12S                  
FT MYERS       FAIR      86  72  62 VRB5      30.09S                  
SOUTHWEST INTL FAIR      87  72  60 SE10      30.10S                  
IMMOKALEE      FAIR      90  72  55 E7        30.08F HX  96           
MARATHON       PTSUNNY   88  77  69 SE7       30.08S HX 100           
KEY WEST NAS   PTSUNNY   85  75  72 E14       30.08S                  
KEY WEST INTL  FAIR      86  75  69 NE9G18    30.08S HX  95           

STATION/POSITION SKY/WX   TEMP    WIND        PRES    WAVE   SWELL
                          AIR SEA DIR/SP/G            HT/PER HT/PER
                          (F)     (DEG/KT/KT) (MB)    (FT/S) (FT/S)
NAPLES                     88 87              1019.3R
26.0N   85.6W              84 86  190/  4/  6 1018.1F   2/ 6   2/ 6
DRY TORTUGAS               85     130/  7/  8 1018.7S
SAND KEY                   85     110/  9/ 12 1017.5S
SOMBRERO KEY               84     110/  6/  8 1019.0S
LONG KEY                   85                 1017.8S

$$
FLZ067-068-071>074-168-172>174-211700-
SOUTHEAST FLORIDA 
  
CITY           SKY/WX    TMP DP  RH WIND       PRES   REMARKS
W PALM BEACH   FAIR      86  73  65 E10       30.11F                  
BOCA RATON     MOSUNNY   90  73  58 E10G17    30.10F HX  98           
FT LAUDER-EXEC PTSUNNY   87  73  62 E8        30.09S                  
FT LAUDERDALE  FAIR      87  73  62 E8        30.08F                  
POMPANO BEACH  FAIR      89  73  59 E12       30.09F HX  97           
PEMBROKE PINES PTSUNNY   90  73  57 NE7       30.10F HX  98           
OPA LOCKA      PTSUNNY   88  74  63 E8        30.09F HX  96           
MIAMI          FAIR      89  71  55 SE10      30.08F HX  95           
WEST KENDALL   FAIR      88  75  65 E9        30.08F HX  97           
HOMESTEAD      PTSUNNY   86  75  68 NE8       30.08F HX  95           

STATION/POSITION SKY/WX   TEMP    WIND        PRES    WAVE   SWELL
                          AIR SEA DIR/SP/G            HT/PER HT/PER
                          (F)     (DEG/KT/KT) (MB)    (FT/S) (FT/S)
VIRGINIA KEY                       60/  6/  9 1018.9S
LAKE WORTH                        100/  6/  8   N/A
FOWEY ROCKS                83 86   80/  9/ 10 1019.1F
SETTLEMENT POINT           84      60/  4/  5 1019.5F

$$